Weather History for Rotterdam, Netherlands

Change the Weather History Date:

Wednesday, October 2, 2013

  Actual Average Record
Temperature  
Mean Temperature 52 °F -  
Max Temperature 61 °F 55 °F 77 °F (2011)
Min Temperature 42 °F 45 °F 41 °F (2008)
Degree Days  
Heating Degree Days 14    
Growing Degree Days 2 (Base 50)    
Moisture  
Dew Point 42 °F    
Average Humidity 67    
Maximum Humidity 87    
Minimum Humidity 39    
Precipitation  
Precipitation 0.00 in - - ()
Sea Level Pressure  
Sea Level Pressure 30.00 in    
Wind  
Wind Speed 12 mph ()    
Max Wind Speed 20 mph    
Max Gust Speed 30 mph    
Visibility 7.4 miles    
Events      
Averages and records for this station are not official NWS values.
T = Trace of Precipitation, MM = Missing Value Source: Averaged Metar Reports

Daily Weather History Graph

Daily Weather History Graph

Search for Another Location

Airport:

Trip Planner

Search our weather history database for the weather conditions in past years. The results will help you decide how hot, cold, wet, or windy it might be!

Date:

Astronomy

Oct. 02, 2013 Rise Set
Actual Time 7:44 AM CEST 7:17 PM CEST
Civil Twilight 7:11 AM CEST 7:50 PM CEST
Nautical Twilight 6:32 AM CEST 8:29 PM CEST
Astronomical Twilight 5:51 AM CEST 9:09 PM CEST
Moon 4:46 AM CEST (10/2) 5:56 PM CEST (10/2)
Length of Visible Light 12h 39m
Length of Day
11h 32m
Waning Crescent, 7% of the Moon is Illuminated
Oct 2
Waning Crescent
Oct 5
New
Oct 12
First Quarter
Oct 19
Full
Oct 27
Last Quarter

Hourly Weather History & Observations

Time (CEST) Temp. Windchill Dew Point Humidity Pressure Visibility Wind Dir Wind Speed Gust Speed Precip Events Conditions
12:25 AM 50.0 °F - 41.0 °F 71% 29.98 in 6.2 mi East 15.0 mph - N/A   Unknown
12:55 AM 50.0 °F - 41.0 °F 71% 29.98 in 6.2 mi East 12.7 mph - N/A   Unknown
1:25 AM 50.0 °F - 41.0 °F 71% 29.98 in 6.2 mi East 10.4 mph - N/A   Unknown
1:55 AM 48.2 °F - 41.0 °F 76% 29.98 in 6.2 mi East 11.5 mph - N/A   Unknown
2:00 AM 48 °F - 40 °F 67% 30.00 in 19 mi East 11.2 mph - -   Partly Cloudy
2:25 AM 48.2 °F - 41.0 °F 76% 29.98 in 6.2 mi East 11.5 mph - N/A   Unknown
2:55 AM 48.2 °F - 41.0 °F 76% 29.98 in 6.2 mi East 11.5 mph - N/A   Unknown
3:25 AM 48.2 °F - 39.2 °F 71% 29.98 in 6.2 mi East 11.5 mph - N/A   Unknown
3:55 AM 46.4 °F 41.1 °F 39.2 °F 76% 29.98 in 6.2 mi East 11.5 mph - N/A   Unknown
4:25 AM 46.4 °F 41.5 °F 39.2 °F 76% 29.98 in 6.2 mi East 10.4 mph - N/A   Unknown
4:55 AM 46.4 °F 41.1 °F 39.2 °F 76% 29.98 in 6.2 mi East 11.5 mph - N/A   Unknown
5:00 AM 46 °F - 39 °F 69% 30.00 in 16 mi East 11.2 mph - -  
5:25 AM 46.4 °F 41.1 °F 39.2 °F 76% 29.98 in 6.2 mi East 11.5 mph - N/A   Unknown
5:55 AM 44.6 °F 38.1 °F 39.2 °F 81% 29.98 in 6.2 mi East 13.8 mph - N/A   Unknown
6:25 AM 44.6 °F 38.1 °F 39.2 °F 81% 29.98 in 6.2 mi East 13.8 mph - N/A   Unknown
6:55 AM 44.6 °F 38.8 °F 39.2 °F 81% 29.98 in 6.2 mi East 11.5 mph - N/A   Unknown
7:25 AM 44.6 °F 38.8 °F 39.2 °F 81% 29.98 in 6.2 mi East 11.5 mph - N/A   Unknown
7:55 AM 42.8 °F 36.6 °F 39.2 °F 87% 29.98 in 6.2 mi East 11.5 mph - N/A   Unknown
8:00 AM 44 °F - 38 °F 73% 30.00 in 12 mi East 11.2 mph - -   Partly Cloudy
8:25 AM 44.6 °F 38.4 °F 39.2 °F 81% 29.98 in 6.2 mi East 12.7 mph - N/A   Unknown
8:55 AM 44.6 °F 38.4 °F 39.2 °F 81% 30.01 in 6.2 mi East 12.7 mph - N/A   Unknown
9:25 AM 46.4 °F 40.4 °F 39.2 °F 76% 30.01 in 6.2 mi East 13.8 mph - N/A   Unknown
9:55 AM 46.4 °F 41.1 °F 39.2 °F 76% 30.01 in 6.2 mi East 11.5 mph - N/A   Unknown
10:25 AM 48.2 °F - 41.0 °F 76% 30.01 in 6.2 mi East 13.8 mph - N/A   Unknown
10:55 AM 50.0 °F - 41.0 °F 71% 30.01 in 6.2 mi East 13.8 mph - N/A   Unknown
11:00 AM 50 °F - 41 °F 63% 30.01 in 11 mi East 15.7 mph - -   Scattered Clouds
11:25 AM 51.8 °F - 41.0 °F 67% 30.01 in 6.2 mi East 12.7 mph - N/A   Unknown
11:55 AM 51.8 °F - 42.8 °F 71% 30.01 in 6.2 mi East 15.0 mph - N/A   Unknown
12:25 PM 53.6 °F - 42.8 °F 67% 30.01 in 6.2 mi ESE 13.8 mph - N/A   Unknown
12:55 PM 55.4 °F - 42.8 °F 63% 30.01 in 6.2 mi ESE 16.1 mph - N/A   Unknown
1:25 PM 55.4 °F - 44.6 °F 67% 30.01 in 6.2 mi ESE 15.0 mph - N/A   Unknown
1:55 PM 59.0 °F - 44.6 °F 59% 30.01 in 6.2 mi ESE 15.0 mph - N/A   Unknown
2:00 PM 58 °F - 45 °F 52% 30.01 in 11 mi ESE 15.7 mph - -   Partly Cloudy
2:25 PM 57.2 °F - 44.6 °F 63% 30.01 in 6.2 mi ESE 15.0 mph - N/A   Unknown
2:55 PM 59.0 °F - 44.6 °F 59% 29.98 in 6.2 mi ESE 18.4 mph - N/A   Unknown
3:25 PM 59.0 °F - 44.6 °F 59% 29.98 in 6.2 mi ESE 17.3 mph - N/A   Unknown
3:55 PM 60.8 °F - 44.6 °F 55% 29.98 in 6.2 mi ESE 18.4 mph 29.9 mph N/A   Unknown
4:25 PM 60.8 °F - 42.8 °F 52% 29.98 in 6.2 mi ESE 19.6 mph - N/A   Unknown
4:55 PM 60.8 °F - 42.8 °F 52% 29.98 in 6.2 mi ESE 15.0 mph - N/A   Unknown
5:00 PM 61 °F - 42 °F 39% 30.00 in 14 mi ESE 15.7 mph - -  
5:25 PM 60.8 °F - 42.8 °F 52% 29.98 in 6.2 mi ESE 16.1 mph - N/A   Unknown
5:55 PM 60.8 °F - 42.8 °F 52% 29.98 in 6.2 mi ESE 13.8 mph - N/A   Unknown
6:25 PM 59.0 °F - 42.8 °F 55% 29.98 in 6.2 mi East 12.7 mph - N/A   Unknown
6:55 PM 59.0 °F - 42.8 °F 55% 30.01 in 6.2 mi East 11.5 mph - N/A   Unknown
7:25 PM 57.2 °F - 42.8 °F 59% 30.01 in 6.2 mi East 12.7 mph - N/A   Unknown
7:55 PM 57.2 °F - 42.8 °F 59% 30.01 in 6.2 mi East 11.5 mph - N/A   Unknown
8:00 PM 56 °F - 44 °F 53% 30.02 in 17 mi East 11.2 mph - -   Partly Cloudy
8:25 PM 55.4 °F - 42.8 °F 63% 30.01 in 6.2 mi ESE 9.2 mph - N/A   Unknown
8:55 PM 55.4 °F - 42.8 °F 63% 30.01 in 6.2 mi ESE 9.2 mph - N/A   Unknown
9:25 PM 55.4 °F - 42.8 °F 63% 30.01 in 6.2 mi East 11.5 mph - N/A   Unknown
9:55 PM 55.4 °F - 42.8 °F 63% 30.01 in 6.2 mi ESE 13.8 mph - N/A   Unknown
10:25 PM 55.4 °F - 42.8 °F 63% 30.04 in 6.2 mi ESE 11.5 mph - N/A   Unknown
10:55 PM 55.4 °F - 42.8 °F 63% 30.04 in 6.2 mi ESE 11.5 mph - N/A   Unknown
11:00 PM 54 °F - 43 °F 56% 30.04 in 17 mi ESE 11.2 mph - -   Partly Cloudy
11:25 PM 55.4 °F - 42.8 °F 63% 30.04 in 6.2 mi ESE 11.5 mph - N/A   Unknown
11:55 PM 53.6 °F - 42.8 °F 67% 30.04 in 6.2 mi ESE 13.8 mph - N/A   Unknown